CZ-4B R/B, 61938

Orbit data source: Space-Track

CZ-4B R/B, 61938 is space debris in SSO originally from a launch on Wed, 13 Nov 2024 UTC launched from the Taiyaun Space Center, China (TSC). Debris objects in space refer to the collection of defunct objects orbiting the Earth. Examples of debris include non-operational satellites, rocket bodies, and fragments generated from explosions, collisions, or faulty payload assembly.

Loading next visibility...
Identifier
61938, 2024-208C
Orbit
SSO
Country
Flag of CNCN / PRC
Related business
Manufacturer
SAST
Mission
Spacecraft
Bus & Motor
CZ-4 STAGE 3, Unknown motor
Mass
~1,000 kg wet, ~1,000 kg dry
Launch date (UTC)
2024-11-13 (2 years ago)
Launch vehicle
Unknown
Launch site
Taiyaun Space Center, China (TSC)
Object type
Payload
Rocket body
Debris
Shape & HBR
Cyl, 2.5 m
Radar Cross Section
14.536 m², Large (>1 m²)

Expand to show TLE details & history
Last TLE update: 14 hours ago

TLE from 14 hours ago
0 CZ-4B R/B
1 61938U 24208C   26150.10596122  .00009027  00000-0  25964-3 0  9990
2 61938  97.9441 200.0264 0124941 226.6417 132.4359 15.28543812 85511
Epoch: 2026-05-30T02:32Z
TLE epoch observation values (Epoch: 2026-05-30T02:32:35.049Z)
Latitude
-0.00008°
Longitude
-85.74638°
Altitude
541.659 km
Speed
7.559 km/s
True Right ascension
13h 20m 06s
True Declination
0° 00' 00"
Sunlit
Object was in full shadow at epoch
Visualization orbit readout
Latitude
Unknown
Longitude
Unknown
Altitude
Unknown
Speed
Unknown
Apparent Right ascension
Unknown
Apparent Declination
Unknown
Sunlit
N/A
Visualization observer readout
Local Sidereal Time
01:45:53
Azimuth
Unknown
Elevation
Unknown
Doppler factor
Unknown
Orbital elements
Apogee altitude
562.793 km
Perigee altitude
391.492 km
Semi-major axis
6,855.279 km
Eccentricity
0.01249
Inclination
97.9441°
RAAN
200.0264°
Arg. of periapsis
226.6417°
True anomaly
133.48147°
Mean anomaly
132.4359°
Eccentric anomaly
132.95979°
Mean motion
3.82389 °/min
Orbital period
94.14 mins
BSTAR
0.00025964
Loading maneuver chart data...
Computing Atmospheric mass density...
Loading historical data...
Loading historical data...
Loading historical data...
Loading historical data...
Loading historical data...
Loading historical data...
Loading historical data...
Other satellites on launch #208 in the year 2024 (2024-11-13 UTC)

Documentation

Showing up to 5 results
|